Погода в Варнеке

Россия / Ненецкий автономный округ     69°42′47″N   60°03′15″E
темп.,
°C
ветер,
м/с
пор.,
м/с
влажн.,
%
обл.,
%
осадки,
мм/ч
давл.,
гПа
погр.,
м
25 октября, пн
пн2500:00−4сз69699 0.0 1002491
03:00−4сз69829 0.0 1002409
06:00−4сз697110 0.1 1002513
09:00−5сз69739 0.1 1003488
12:00−4сз6107139 0.0 1003514
15:00−5сз6107810 0.1 1003495
18:00−5сз696838 0.1 1003519
21:00−3сз71069100 0.1 1002677
26 октября, вт
вт2600:00−3сз61085100 0.4 1002515
03:00−4сз71078100 0.6 1002514
06:00−4с6992100 0.5 1002505
09:00−3ссв71074100 0.8 1003737
12:00−3ссв71072100 0.3 1004876
15:00−3ссв6971100 0.6 1005809
18:00−3ссв6877100 0.3 1006715
21:00−3с5876100 0.5 1007596
27 октября, ср
ср2700:00−3с5874100 0.3 1008598
03:00−3с5874100 0.7 1009562
06:00−4с4774100 0.3 1010361
09:00−4ссз457372 0.3 1010428
12:00−5сз347431 0.0 1011264
15:00−6ссз347753 0.1 1011207
18:00−6ссз337771 0.0 1011197
21:00−6ссз337810 0.0 1011115
28 октября, чт
чт2800:00−6с347949 0.1 1011122
03:00−6с23747 0.1 1011116
06:00−7ссз357243 0.0 1011141
09:00−5ссв228883 0.1 101181
12:00−5с23818 0.1 1012129
15:00−6ссз457894 0.1 1012167
18:00−4сз5874100 0.0 1012463
21:00−4сз6972100 0.1 1012499
29 октября, пт
пт2900:00−3ссв6971100 0.8 1012589
03:00−5с6106466 0.9 1013718
06:00−4всв6970100 0.4 1015688
09:00−6ссв476099 0.5 1017890
12:00−5ссз3566100 0.1 1019612
15:00−6с3591100 0.8 1020230
18:00−7ссз238072 0.0 1020121
21:00−6ссз457237 0.0 1020335